Meteo pe oră la Cluj-Napoca

Astăzi, 17 Aprilie, Sâmbătă

Timp Temperatura Precipitaţii Vânt Presiune Umiditate
00:00 +1°C° 0 mm 1 m/s 727 mmHg 87%
01:00 +1°C° 0 mm 1 m/s 727 mmHg 88%
02:00 +1°C° 0 mm 1 m/s 727 mmHg 87%
03:00 +1°C° 0 mm 1 m/s 727 mmHg 87%
04:00 +1°C° 0 mm 1 m/s 727 mmHg 87%
05:00 +1°C° 0 mm 1 m/s 727 mmHg 86%
06:00 +2°C° 0 mm 1 m/s 727 mmHg 81%
07:00 +3°C° 0 mm 1 m/s 727 mmHg 75%
08:00 +4°C° 0 mm 1 m/s 727 mmHg 70%
09:00 +5°C° 0 mm 2 m/s 727 mmHg 65%
10:00 +6°C° 0 mm 2 m/s 726 mmHg 60%
11:00 +8°C° 0 mm 2 m/s 726 mmHg 55%
12:00 +9°C° 0 mm 2 m/s 726 mmHg 53%
13:00 +10°C° 0 mm 2 m/s 725 mmHg 50%
14:00 +12°C° 0 mm 2 m/s 725 mmHg 48%
15:00 +12°C° 0 mm 2 m/s 725 mmHg 49%
16:00 +11°C° 0 mm 1 m/s 724 mmHg 50%
17:00 +11°C° 0 mm 1 m/s 724 mmHg 50%
18:00 +10°C° 0 mm 1 m/s 724 mmHg 56%
19:00 +8°C° 0 mm 1 m/s 724 mmHg 61%
20:00 +6°C° 0 mm 0 m/s 724 mmHg 67%
21:00 +6°C° 0 mm 1 m/s 724 mmHg 69%
22:00 +6°C° 0 mm 1 m/s 724 mmHg 71%
23:00 +5°C° 0 mm 1 m/s 724 mmHg 73%

Mâine, 18 Aprilie, Duminică

Timp Temperatura Precipitaţii Vânt Presiune Umiditate
00:00 +5°C° 0 mm 1 m/s 724 mmHg 73%
01:00 +6°C° 0 mm 1 m/s 724 mmHg 72%
02:00 +5°C° 0 mm 0 m/s 724 mmHg 72%
03:00 +6°C° 0 mm 1 m/s 724 mmHg 74%
04:00 +5°C° 0 mm 1 m/s 724 mmHg 75%
05:00 +5°C° 0 mm 1 m/s 723 mmHg 76%
06:00 +6°C° 0 mm 1 m/s 723 mmHg 74%
07:00 +7°C° 0 mm 1 m/s 723 mmHg 72%
08:00 +8°C° 0 mm 1 m/s 723 mmHg 70%
09:00 +8°C° 0 mm 2 m/s 723 mmHg 68%
10:00 +9°C° 0 mm 3 m/s 723 mmHg 66%
11:00 +9°C° 0 mm 3 m/s 723 mmHg 65%
12:00 +9°C° 0.3 mm 3 m/s 723 mmHg 71%
13:00 +8°C° 0.3 mm 2 m/s 724 mmHg 77%
14:00 +8°C° 0.3 mm 2 m/s 724 mmHg 84%
15:00 +8°C° 0.4 mm 2 m/s 724 mmHg 86%
16:00 +8°C° 0.4 mm 1 m/s 724 mmHg 89%
17:00 +8°C° 0.4 mm 1 m/s 724 mmHg 91%
18:00 +8°C° 0.2 mm 1 m/s 724 mmHg 92%
19:00 +6°C° 0.2 mm 0 m/s 724 mmHg 93%
20:00 +6°C° 0.2 mm 0 m/s 724 mmHg 94%
21:00 +6°C° 0.1 mm 0 m/s 724 mmHg 94%
22:00 +6°C° 0.1 mm 0 m/s 724 mmHg 95%
23:00 +6°C° 0.1 mm 0 m/s 724 mmHg 95%

Poimâine, 19 Aprilie, Luni

Timp Temperatura Precipitaţii Vânt Presiune Umiditate
00:00 +6°C° 0.1 mm 0 m/s 724 mmHg 95%
01:00 +6°C° 0.1 mm 0 m/s 724 mmHg 95%
02:00 +6°C° 0.1 mm 0 m/s 724 mmHg 95%
03:00 +6°C° 0.1 mm 0 m/s 724 mmHg 95%
04:00 +6°C° 0.1 mm 0 m/s 724 mmHg 95%
05:00 +6°C° 0.1 mm 0 m/s 724 mmHg 94%
06:00 +6°C° 0.1 mm 0 m/s 724 mmHg 94%
07:00 +6°C° 0.1 mm 0 m/s 723 mmHg 93%
08:00 +7°C° 0.1 mm 1 m/s 723 mmHg 92%
09:00 +7°C° 0.1 mm 1 m/s 723 mmHg 90%
10:00 +8°C° 0.1 mm 1 m/s 723 mmHg 89%
11:00 +8°C° 0.1 mm 1 m/s 723 mmHg 87%
12:00 +9°C° 0.1 mm 1 m/s 723 mmHg 85%
13:00 +9°C° 0.1 mm 1 m/s 722 mmHg 83%
14:00 +9°C° 0.1 mm 2 m/s 722 mmHg 81%
15:00 +9°C° 0.1 mm 2 m/s 722 mmHg 80%
16:00 +9°C° 0.1 mm 2 m/s 721 mmHg 80%
17:00 +9°C° 0.1 mm 2 m/s 721 mmHg 79%
18:00 +8°C° 0 mm 2 m/s 721 mmHg 83%
19:00 +7°C° 0 mm 2 m/s 721 mmHg 87%
20:00 +6°C° 0 mm 2 m/s 721 mmHg 90%
21:00 +6°C° 0 mm 2 m/s 721 mmHg 91%
22:00 +6°C° 0 mm 2 m/s 720 mmHg 91%
23:00 +6°C° 0 mm 2 m/s 720 mmHg 92%

20 Aprilie, Marţi

Timp Temperatura Precipitaţii Vânt Presiune Umiditate
00:00 +6°C° 0 mm 2 m/s 720 mmHg 91%
01:00 +6°C° 0 mm 2 m/s 720 mmHg 91%
02:00 +6°C° 0 mm 2 m/s 720 mmHg 90%
03:00 +6°C° 0.1 mm 2 m/s 719 mmHg 90%
04:00 +6°C° 0.1 mm 2 m/s 719 mmHg 90%
05:00 +6°C° 0.1 mm 2 m/s 719 mmHg 90%
06:00 +6°C° 0.4 mm 2 m/s 719 mmHg 90%
07:00 +6°C° 0.4 mm 2 m/s 720 mmHg 89%
08:00 +5°C° 0.4 mm 3 m/s 720 mmHg 89%
09:00 +7°C° 0.2 mm 3 m/s 720 mmHg 86%
10:00 +7°C° 0.2 mm 3 m/s 720 mmHg 84%
11:00 +7°C° 0.2 mm 4 m/s 720 mmHg 81%
12:00 +7°C° 0.1 mm 4 m/s 720 mmHg 82%
13:00 +7°C° 0.1 mm 4 m/s 720 mmHg 82%
14:00 +7°C° 0.1 mm 4 m/s 720 mmHg 82%
15:00 +7°C° 0.1 mm 4 m/s 720 mmHg 82%
16:00 +8°C° 0.1 mm 3 m/s 721 mmHg 82%
17:00 +8°C° 0.1 mm 3 m/s 721 mmHg 82%
18:00 +7°C° 0.1 mm 2 m/s 721 mmHg 84%
19:00 +7°C° 0.1 mm 2 m/s 721 mmHg 86%
20:00 +7°C° 0.1 mm 1 m/s 722 mmHg 88%
21:00 +7°C° 0 mm 1 m/s 722 mmHg 87%
22:00 +7°C° 0 mm 1 m/s 722 mmHg 87%
23:00 +7°C° 0 mm 1 m/s 722 mmHg 86%

21 Aprilie, Miercuri

Timp Temperatura Precipitaţii Vânt Presiune Umiditate
00:00 +7°C° 0 mm 1 m/s 722 mmHg 86%
01:00 +6°C° 0 mm 1 m/s 722 mmHg 85%
02:00 +6°C° 0 mm 1 m/s 723 mmHg 85%
03:00 +6°C° 0 mm 1 m/s 723 mmHg 85%
04:00 +6°C° 0 mm 1 m/s 723 mmHg 85%
05:00 +5°C° 0 mm 1 m/s 723 mmHg 84%
06:00 +6°C° 0 mm 1 m/s 724 mmHg 82%
07:00 +7°C° 0 mm 1 m/s 724 mmHg 80%
08:00 +8°C° 0 mm 1 m/s 724 mmHg 78%
09:00 +8°C° 0.3 mm 1 m/s 725 mmHg 79%
10:00 +7°C° 0.3 mm 2 m/s 725 mmHg 81%
11:00 +7°C° 0.3 mm 2 m/s 725 mmHg 82%
12:00 +8°C° 0.1 mm 2 m/s 725 mmHg 80%
13:00 +9°C° 0.1 mm 2 m/s 726 mmHg 78%
14:00 +9°C° 0.1 mm 2 m/s 726 mmHg 76%
15:00 +10°C° 0 mm 2 m/s 726 mmHg 71%
16:00 +10°C° 0 mm 2 m/s 726 mmHg 67%
17:00 +12°C° 0 mm 1 m/s 725 mmHg 62%
18:00 +11°C° 0 mm 1 m/s 726 mmHg 68%
19:00 +9°C° 0 mm 1 m/s 726 mmHg 75%
20:00 +7°C° 0 mm 1 m/s 726 mmHg 81%
21:00 +7°C° 0 mm 1 m/s 727 mmHg 82%
22:00 +7°C° 0 mm 1 m/s 727 mmHg 83%
23:00 +6°C° 0 mm 1 m/s 727 mmHg 83%

22 Aprilie, Joi

Timp Temperatura Precipitaţii Vânt Presiune Umiditate
00:00 +6°C° 0 mm 1 m/s 727 mmHg 83%
01:00 +6°C° 0 mm 1 m/s 727 mmHg 84%
02:00 +5°C° 0 mm 1 m/s 727 mmHg 84%
03:00 +5°C° 0 mm 1 m/s 727 mmHg 84%
04:00 +5°C° 0 mm 1 m/s 728 mmHg 84%
05:00 +5°C° 0 mm 1 m/s 728 mmHg 84%
06:00 +7°C° 0 mm 1 m/s 728 mmHg 80%
07:00 +8°C° 0 mm 1 m/s 728 mmHg 76%
08:00 +10°C° 0 mm 1 m/s 728 mmHg 71%
09:00 +11°C° 0.2 mm 1 m/s 728 mmHg 67%
10:00 +12°C° 0.2 mm 1 m/s 728 mmHg 64%
11:00 +14°C° 0.2 mm 1 m/s 728 mmHg 60%
12:00 +14°C° 0.7 mm 1 m/s 728 mmHg 59%
13:00 +15°C° 0.7 mm 1 m/s 728 mmHg 59%
14:00 +15°C° 0.7 mm 1 m/s 727 mmHg 59%
15:00 +15°C° 0.8 mm 2 m/s 727 mmHg 61%
16:00 +14°C° 0.8 mm 2 m/s 727 mmHg 64%
17:00 +14°C° 0.8 mm 2 m/s 727 mmHg 67%
18:00 +13°C° 0.3 mm 2 m/s 727 mmHg 72%
19:00 +11°C° 0.3 mm 1 m/s 727 mmHg 77%
20:00 +10°C° 0.3 mm 1 m/s 727 mmHg 82%
21:00 +9°C° 0.1 mm 1 m/s 727 mmHg 83%
22:00 +9°C° 0.1 mm 1 m/s 727 mmHg 84%
23:00 +8°C° 0.1 mm 1 m/s 727 mmHg 85%
Arată mai mult

Formular de consimțământ

Meteoprog și furnizorii noștri de servicii pot stoca și accesa date personale, precum cookies, identificatori de dispozitiv sau alte tehnologii similare pe dispozitivul dumneavoastră și procesa astfel de date pentru a personaliza conținutul și reclamele, dar și pentru a oferi caracteristici de social media și pentru a analiza traficul.

  • Stocarea și/sau accesarea informațiilor pe dispozitivul dumneavoastră

    Cookies, identificatori de dispozitiv sau alte informații pot fi stocate sau accesate pe dispozitiv în scopurile indicate mai sus.

  • Reclame și conținut personalizat, evaluarea reclamelor și a conținutului, informații despre audiențe și dezvoltarea produselor

    Reclamele și conținutul pot fi personalizate pe baza unui profil. Pot fi adăugate date suplimentare pentru a personaliza mai bine reclamele și conținutul. Performanța reclamelor și conținutului poate fi măsurată. Pot fi obținute informații despre utilizatorii care au văzut reclamele și conținutul. Aceste date pot fi utilizate pentru a dezvolta sau îmbunătăți experiența utilizatorilor, sistemele și software-ul.

Dând clic pe ‘Sunt de acord’, permiteți utilizarea cookie-urilor menționate, a identificatorilor de dispozitiv, balizelor web sau altor tehnologii similare. Setările pot fi modificate din browser-ul dispozitivului dumneavoastră.

În anumite scopuri, interesele legitime pot prima asupra consimțământului. Puteți citi mai multe informații în acest sens în Politica privind Confidențialitatea Datelor și Cookie.